STARLINK-30171, 57469

Orbit data source: Space-Track

STARLINK-30171, 57469 is a payload satellite owned by SpaceX/Seattle (US) in LEO that was launched on Fri, 28 Jul 2023 UTC via an FALCON 9 launch vehicle from the Air Force Eastern Test Range (AFETR). Payload-class satellites include a variety of spacecraft equipped with specific instruments for various scientific and technological missions. These include communications satellites like Starlink; space stations such as the ISS; scientific satellites like the Hubble; Earth observation satellites from companies like Planet Labs, Umbra, and HawkEye 360; GPS; miniature CubeSats for education and research; and military/defense satellites.

Loading next visibility...
Identifier
57469, 2023-107N
Orbit
LEO
Country
Flag of USUS
Related business
Manufacturer
SpaceX/Seattle
Mission
Operational Commercial Communications
Bus & Motor
STARLINK V2M, Unknown motor
Mass
730 kg wet, ~700 kg dry
Launch date (UTC)
2023-07-28 (3 years ago)
Launch vehicle
FALCON 9
Launch site
Air Force Eastern Test Range (AFETR)
Object type
Payload
Rocket body
Debris
Shape & HBR
Box + 2 Pan, 17.7 m
Radar Cross Section
33.884 m², Large (>1 m²)

Expand to show TLE details & history
Last TLE update: 2 days ago

TLE from 2 days ago
0 STARLINK-30171
1 57469U 23107N   26171.25337495  .00001510  00000-0  64428-4 0  9994
2 57469  43.0058 120.2212 0001581 262.8615  97.2057 15.27570126160797
Epoch: 2026-06-20T06:04Z
TLE epoch observation values (Epoch: 2026-06-20T06:04:51.595Z)
Latitude
-0.00003°
Longitude
120.53554°
Altitude
482.991 km
Speed
7.626 km/s
True Right ascension
08h 00m 53s
True Declination
0° 00' 00"
Sunlit
Object was in daylight at epoch
Visualization orbit readout
Latitude
Unknown
Longitude
Unknown
Altitude
Unknown
Speed
Unknown
Apparent Right ascension
Unknown
Apparent Declination
Unknown
Sunlit
N/A
Visualization observer readout
Local Sidereal Time
21:30:59
Azimuth
Unknown
Elevation
Unknown
Doppler factor
Unknown
Orbital elements
Apogee altitude
486.108 km
Perigee altitude
483.938 km
Semi-major axis
6,863.16 km
Eccentricity
0.00016
Inclination
43.0058°
RAAN
120.2212°
Arg. of periapsis
262.8615°
True anomaly
97.22367°
Mean anomaly
97.2057°
Eccentric anomaly
97.21469°
Mean motion
3.81731 °/min
Orbital period
94.31 mins
BSTAR
0.000064428
Loading maneuver chart data...
Computing Atmospheric mass density...
Loading historical data...
Loading historical data...
Loading historical data...
Loading historical data...
Loading historical data...
Loading historical data...
Loading historical data...

Documentation

Showing up to 5 results
|